Weather History for KCTY - February, 2013

Change the Weather History Date:

Wednesday, February 20, 2013

  Actual Average Record
Temperature  
Mean Temperature 57 °F 58 °F  
Max Temperature 69 °F 71 °F 82 °F (2014)
Min Temperature 45 °F 44 °F 22 °F (2015)
Degree Days  
Heating Degree Days 8 8  
Month to date heating degree days 185 183  
Since 1 July heating degree days 791 1061  
Cooling Degree Days 0 1  
Month to date cooling degree days 21 14  
Year to date cooling degree days 72 25  
Growing Degree Days 8 (Base 50)    
Moisture  
Dew Point 39 °F    
Average Humidity 57    
Maximum Humidity 93    
Minimum Humidity 30    
Precipitation  
Precipitation 0.00 in 0.13 in 0.01 in (2002)
Month to date precipitation 1.40 2.04  
Year to date precipitation 1.98 6.08  
Sea Level Pressure  
Sea Level Pressure 30.13 in    
Wind  
Wind Speed 4 mph (NNE)    
Max Wind Speed 14 mph    
Max Gust Speed 20 mph    
T = Trace of Precipitation, MM = Missing Value Source: NWS Daily Summary

Daily Weather History Graph

Daily Weather History Graph

Search for Another Location

Airport or City:

Trip Planner

Search our weather history database for the weather conditions in past years. The results will help you decide how hot, cold, wet, or windy it might be!

Date:

Astronomy

Feb. 20, 2013 Rise Set
Actual Time 7:07 AM EST 6:25 PM EST
Civil Twilight 6:42 AM EST 6:49 PM EST
Nautical Twilight 6:15 AM EST 7:17 PM EST
Astronomical Twilight 5:47 AM EST 7:45 PM EST
Moon 1:58 PM EST (2/20) 3:13 AM EST (2/20)
Length of Visible Light 12h 06m
Length of Day
11h 18m
Waxing Gibbous, 76% of the Moon is Illuminated
Feb 20
Waxing Gibbous
Feb 25
Full
Mar 4
Last Quarter
Mar 11
New
Mar 19
First Quarter

Hourly Weather History & Observations

Time (EST) Temp. Windchill Dew Point Humidity Pressure Visibility Wind Dir Wind Speed Gust Speed Precip Events Conditions
12:53 AM 55.9 °F - 54.0 °F 93% 30.12 in - North 3.5 mph - N/A   Unknown
1:53 AM 54.0 °F - 51.1 °F 90% 30.12 in - North 4.6 mph - N/A   Unknown
2:53 AM 54.0 °F - 46.9 °F 77% 30.13 in - North 6.9 mph - N/A   Unknown
3:53 AM 51.1 °F - 44.1 °F 77% 30.13 in - North 5.8 mph - N/A   Unknown
4:53 AM 48.9 °F - 44.1 °F 83% 30.14 in - North 4.6 mph - N/A   Unknown
5:53 AM 48.9 °F - 39.9 °F 71% 30.16 in - NNE 6.9 mph - N/A   Unknown
6:53 AM 46.0 °F 43.9 °F 37.9 °F 73% 30.18 in - NNE 4.6 mph - N/A   Unknown
7:53 AM 48.0 °F - 37.9 °F 68% 30.19 in - NNE 4.6 mph - N/A   Unknown
8:53 AM 50.0 °F - 32.0 °F 50% 30.19 in - NE 9.2 mph - N/A   Unknown
9:53 AM 54.0 °F - 27.0 °F 35% 30.20 in - NE 8.1 mph 16.1 mph N/A   Unknown
10:53 AM 57.9 °F - 28.0 °F 32% 30.18 in - NE 4.6 mph - N/A   Unknown
11:53 AM 63.0 °F - 30.9 °F 30% 30.15 in - Variable 4.6 mph - N/A   Unknown
12:53 PM 64.9 °F - 33.1 °F 31% 30.12 in - NNE 9.2 mph - N/A   Unknown
1:53 PM 68.0 °F - 36.0 °F 31% 30.10 in - NNW 5.8 mph - N/A   Unknown
2:53 PM 66.9 °F - 37.9 °F 34% 30.09 in - Calm Calm - N/A   Unknown
3:53 PM 68.0 °F - 37.9 °F 33% 30.10 in - WNW 6.9 mph - N/A   Unknown
4:53 PM 66.9 °F - 37.9 °F 34% 30.09 in - North 4.6 mph - N/A   Unknown
5:53 PM 64.0 °F - 39.9 °F 41% 30.09 in - North 5.8 mph - N/A   Unknown
6:53 PM 59.0 °F - 39.9 °F 49% 30.12 in - NNE 4.6 mph - N/A   Unknown
7:53 PM 55.0 °F - 41.0 °F 59% 30.12 in - Calm Calm - N/A   Unknown
8:53 PM 52.0 °F - 41.0 °F 66% 30.12 in - Calm Calm - N/A   Unknown
9:53 PM 48.9 °F - 41.0 °F 74% 30.12 in - Calm Calm - N/A   Unknown
10:53 PM 46.9 °F - 39.9 °F 77% 30.12 in - Calm Calm - N/A   Unknown
11:53 PM 45.0 °F - 37.9 °F 76% 30.11 in - Calm Calm - N/A   Unknown